Seattle, WA

1:55 PM PST on December 12, 2019 (GMT -0800)
Seattle-Tacoma International

Weather History for KSEA - June, 2019

Change the Weather History Date:

Tuesday, June 4, 2019

  Actual Average Record
Temperature  
Mean Temperature 62 °F 59 °F  
Max Temperature 72 °F 68 °F 91 °F (2009)
Min Temperature 52 °F 50 °F 41 °F (1962)
Degree Days  
Heating Degree Days 3 6  
Month to date heating degree days 8 26  
Since 1 June heating degree days 8 26  
Since 1 July heating degree days 4016 4579  
Cooling Degree Days 0 0  
Month to date cooling degree days 0 0  
Year to date cooling degree days 21 6  
Since 1 June cooling degree days 0 0  
Growing Degree Days 12 (Base 50)    
Moisture  
Dew Point 42 °F    
Average Humidity 48    
Maximum Humidity 68    
Minimum Humidity 27    
Precipitation  
Precipitation 0.00 in 0.07 in 0.83 in (1964)
Month to date precipitation 0.00 0.26  
Year to date precipitation 13.97 17.70  
Sea Level Pressure  
Sea Level Pressure 30.15 in    
Wind  
Wind Speed 5 mph (NNW)    
Max Wind Speed 12 mph    
Max Gust Speed 15 mph    
Visibility 10 miles    
Events      
T = Trace of Precipitation, MM = Missing Value Source: NWS Daily Summary

Daily Weather History Graph

Daily Weather History Graph

Search for Another Location

Airport or City:

Astronomy

Jun. 04, 2019 Rise Set
Actual Time 5:14 AM PDT 9:00 PM PDT
Civil Twilight 4:35 AM PDT 9:40 PM PDT
Nautical Twilight 3:41 AM PDT 10:34 PM PDT
Astronomical Twilight 2:24 AM PDT 11:52 PM PDT
Moon 6:29 AM PDT (6/4) 10:34 PM PDT (6/4)
Length of Visible Light 17h 05m
Length of Day
15h 46m
New Moon, 2% of the Moon is Illuminated
Jun 4
New Moon
Jun 9
First Quarter
Jun 17
Full
Jun 25
Last Quarter
Jul 2
New

Hourly Weather History & Observations

Time (PDT) Temp. Dew Point Humidity Pressure Visibility Wind Dir Wind Speed Gust Speed Precip Events Conditions
12:53 AM 55.9 °F 42.1 °F 60% 30.15 in 10.0 mi NNE 9.2 mph - N/A   Partly Cloudy
1:53 AM 55.0 °F 41.0 °F 59% 30.16 in 10.0 mi NNE 9.2 mph - N/A   Mostly Cloudy
2:53 AM 54.0 °F 42.1 °F 64% 30.17 in 10.0 mi NNE 9.2 mph - N/A   Partly Cloudy
3:53 AM 53.1 °F 41.0 °F 64% 30.17 in 10.0 mi NE 6.9 mph - N/A   Partly Cloudy
4:53 AM 52.0 °F 41.0 °F 66% 30.18 in 10.0 mi NE 6.9 mph - N/A   Scattered Clouds
5:53 AM 53.1 °F 41.0 °F 64% 30.19 in 10.0 mi NNE 6.9 mph - N/A   Mostly Cloudy
6:53 AM 53.1 °F 42.1 °F 66% 30.20 in 10.0 mi NE 5.8 mph - N/A   Mostly Cloudy
7:53 AM 53.1 °F 43.0 °F 69% 30.20 in 10.0 mi East 5.8 mph - N/A   Mostly Cloudy
8:53 AM 57.0 °F 44.1 °F 62% 30.21 in 10.0 mi Calm Calm - N/A   Mostly Cloudy
9:53 AM 60.1 °F 44.1 °F 55% 30.20 in 10.0 mi NNE 5.8 mph - N/A   Mostly Cloudy
10:53 AM 61.0 °F 46.0 °F 58% 30.20 in 10.0 mi WNW 5.8 mph - N/A   Mostly Cloudy
11:53 AM 64.0 °F 46.0 °F 52% 30.20 in 10.0 mi SW 6.9 mph - N/A   Mostly Cloudy
12:53 PM 64.9 °F 45.0 °F 48% 30.19 in 10.0 mi West 8.1 mph - N/A   Mostly Cloudy
1:53 PM 68.0 °F 42.1 °F 39% 30.17 in 10.0 mi West 5.8 mph - N/A   Mostly Cloudy
2:53 PM 68.0 °F 37.0 °F 32% 30.15 in 10.0 mi WNW 4.6 mph - N/A   Mostly Cloudy
3:53 PM 71.1 °F 35.1 °F 27% 30.14 in 10.0 mi SSW 6.9 mph - N/A   Mostly Cloudy
4:53 PM 70.0 °F 39.0 °F 32% 30.12 in 10.0 mi Calm Calm - N/A   Mostly Cloudy
5:53 PM 71.1 °F 39.9 °F 32% 30.10 in 10.0 mi South 8.1 mph - N/A   Scattered Clouds
6:53 PM 71.1 °F 39.0 °F 31% 30.08 in 10.0 mi Variable 3.5 mph - N/A   Mostly Cloudy
7:53 PM 70.0 °F 39.9 °F 33% 30.07 in 10.0 mi SSW 6.9 mph - N/A   Mostly Cloudy
8:53 PM 63.0 °F 43.0 °F 48% 30.07 in 10.0 mi WNW 4.6 mph - N/A   Mostly Cloudy
9:53 PM 61.0 °F 43.0 °F 52% 30.08 in 10.0 mi Calm Calm - N/A   Scattered Clouds
10:53 PM 59.0 °F 43.0 °F 55% 30.09 in 10.0 mi Calm Calm - N/A   Mostly Cloudy
11:53 PM 57.0 °F 45.0 °F 64% 30.08 in 10.0 mi South 5.8 mph - N/A   Mostly Cloudy